Flag for Switzerland Weather past 2 weeks in La-Chaux-de-Fonds, Neuchâtel, Switzerland

Now
59 °F

Scattered clouds.


Feels Like: 59 °F
Forecast: 43 / 65 °F
Wind: 2 mph from North

Location: Les Eplatures

Current Time: Jul 30, 2015 at 3:16:35 PM

Latest Report: Jul 30, 2015 at 2:20 PM


Visibility: N/A

Pressure: 30.07 "Hg (26.71 "Hg at 1000m altitude)

Humidity: 51%

Dew point: 41 °F

Location of La-Chaux-de-FondsLocation

Historic Weather in La-Chaux-de-Fonds — Graph

°F

La-Chaux-de-Fonds temperature yesterday

Maximum temperature yesterday: 57 °F (at 11:50 AM)
Minimum temperature yesterday: 45 °F (at 11:20 PM)
Average temperature yesterday: 53 °F

Past Weeks' High & Low Weather Summary

 TemperatureHumidityPressure
High84 °F (Jul 16, 2:20 PM)100% (Jul 23, 12:50 AM)30.27 "Hg (Jul 23, 12:50 AM)
Low37 °F (Jul 30, 5:20 AM)19% (Jul 16, 2:50 PM)29.86 "Hg (Jul 24, 6:50 PM)
Average63 °F72%30.07 "Hg
* Reported Jul 15 2:20 PM — Jul 30 2:20 PM, La-Chaux-de-Fonds, Weather by CustomWeather, © 2015

Note: Actual official high and low records may vary slightly from our data, if they occured in-between our weather recording intervals... More about our weather records

Advertising

La-Chaux-de-Fonds weather history for previous 24 hours

 ConditionsComfort  
Time TempWeatherWind HumidityBarometerVisibility
2:20 PM
Thu, Jul 30
59 °FScattered clouds.2 mph51%30.07 "HgN/A
1:50 PM57 °FScattered clouds.6 mph51%30.07 "HgN/A
1:20 PM57 °FScattered clouds.3 mph51%30.07 "HgN/A
12:50 PM57 °FBroken clouds.5 mph55%30.07 "HgN/A
12:20 PM55 °FScattered clouds.5 mph55%30.07 "HgN/A
11:50 AM57 °FScattered clouds.1 mph55%30.07 "HgN/A
11:20 AM55 °FScattered clouds.2 mph63%30.07 "HgN/A
10:50 AM54 °FPassing clouds.3 mph58%30.07 "HgN/A
10:20 AM54 °FPassing clouds.2 mph58%30.07 "HgN/A
9:50 AM54 °FScattered clouds.2 mph54%30.07 "HgN/A
9:20 AM52 °FSunny.1 mph72%30.07 "Hg10 mi
8:50 AM48 °FSunny.1 mph87%30.07 "Hg10 mi
8:20 AM46 °FSunny.2 mph87%30.07 "Hg10 mi
7:50 AM43 °FClear.1 mph100%30.07 "Hg10 mi
7:20 AM41 °FClear.No wind93%30.07 "Hg10 mi
6:50 AM39 °FClear.1 mph93%30.04 "Hg10 mi
6:20 AM37 °FClear.1 mph100%30.04 "Hg10 mi
5:50 AM37 °FClear.1 mph100%30.04 "Hg10 mi
5:20 AM37 °FClear.1 mph100%30.04 "Hg10 mi
4:50 AM39 °FClear.1 mph93%30.04 "Hg10 mi
4:20 AM39 °FClear.No wind93%30.04 "Hg10 mi
3:50 AM39 °FClear.No wind93%30.04 "Hg10 mi
3:20 AM39 °FClear.No wind93%30.04 "Hg10 mi
2:50 AM41 °FClear.1 mph100%30.04 "Hg10 mi
2:20 AM41 °FClear.1 mph100%30.07 "Hg10 mi
1:50 AM41 °FClear.No wind93%30.07 "Hg10 mi
1:20 AM41 °FClear.1 mph100%30.07 "Hg10 mi
12:50 AM43 °FClear.No wind100%30.07 "Hg10 mi
12:20 AM43 °FClear.No wind100%30.07 "Hg10 mi
11:50 PM
Wed, Jul 29
46 °FCool.1 mph93%30.04 "HgN/A
11:20 PM45 °FPassing clouds.1 mph100%30.07 "HgN/A
10:50 PM48 °FCool.2 mph94%30.04 "HgN/A
10:20 PM48 °FCool.1 mph100%30.04 "HgN/A
9:50 PM50 °FPassing clouds.2 mph94%30.04 "HgN/A
9:20 PM50 °FPartly sunny.1 mph94%30.04 "HgN/A
8:50 PM52 °FScattered clouds.1 mph88%30.04 "HgN/A
8:20 PM52 °FBroken clouds.2 mph88%30.01 "HgN/A
7:50 PM52 °FPartly sunny.5 mph94%30.01 "HgN/A
7:20 PM52 °FMostly cloudy.5 mph94%30.01 "Hg2 mi
6:50 PM52 °FLow clouds.6 mph94%30.01 "Hg2 mi
6:20 PM52 °FLow clouds.6 mph94%30.01 "Hg2 mi
5:50 PM52 °FMostly cloudy.6 mph94%29.98 "Hg2 mi
5:20 PM52 °FSprinkles. Fog.9 mph94%29.98 "Hg2 mi
4:50 PM55 °FDrizzle. Mostly cloudy.6 mph94%29.98 "Hg3 mi
4:20 PM55 °FDrizzle. Mostly cloudy.8 mph94%29.98 "Hg2 mi
3:50 PM55 °FLight rain. Mostly cloudy.5 mph94%29.95 "Hg4 mi
3:20 PM55 °FLight rain. Broken clouds.7 mph94%29.95 "Hg2 mi
Weather by CustomWeather, © 2015

See weather overviewHow to use our weather pages